Regional Weather Roundup
Issued by NWS Charleston, SC

Current Version | Previous Version | Graphics & Text | Print | Product List | Glossary On
Versions: 1 2 3 4 5 6 7 8 9 10 11 12 13 14 15 16 17 18 19 20 21 22 23 24 25 26 27 28 29 30 31 32 33 34 35 36 37 38 39 40 41 42 43 44 45 46 47 48 49 50
000
ASUS42 KCHS 250828
RWRCHS

REGIONAL WEATHER ROUNDUP
NATIONAL WEATHER SERVICE CHARLESTON SC
400 AM EDT WED MAY 25 2016

NOTE: "FAIR" INDICATES FEW OR NO CLOUDS BELOW 12,000 FEET WITH NO
SIGNIFICANT WEATHER AND/OR OBSTRUCTIONS TO VISIBILITY.

NOT ALL STATIONS ARE QUALITY CONTROLLED. USE DATA WITH CAUTION...
ESPECIALLY DEWPOINT OBSERVATIONS.

SCZ027-030-031-034>040-042>050-250900-
...SOUTHEAST SOUTH CAROLINA...

CITY           SKY/WX    TMP DP  RH WIND       PRES   REMARKS
N CHARLESTON   PTCLDY    67  62  84 CALM      30.18S
WATERFRONT PRK   N/A     72  68  87 CALM      30.17R
MOUNT PLEASANT FAIR      63  63 100 CALM      30.19S
JOHNS ISLAND   FAIR      66  63  88 CALM      30.19S
PINOPOLIS        N/A     70  64  83 CALM      30.11R
MONCKS CORNER  FAIR      57  55  94 CALM      30.18F
SUMMERVILLE    FAIR      61  61 100 CALM      30.20S
BEAUFORT MCAS  CLOUDY    67  66  97 CALM      30.19R FOG
BEAUFORT ARPT  FAIR      68  66  94 CALM      30.18S
HILTON HEAD IS PTCLDY    68  66  94 CALM      30.19S
WALTERBORO     MOSUNNY   64  64 100 CALM      30.20R
ALLENDALE        N/A     66  64  94 CALM      30.17F

...SOUTHERN MIDLANDS AND PEE DEE...

CITY           SKY/WX    TMP DP  RH WIND       PRES   REMARKS
GEORGETOWN     FAIR      59  55  88 CALM      30.20S
KINGSTREE      FAIR      61  57  88 CALM      30.18F
ORANGEBURG     CLEAR     63  61  93 CALM      30.18F FOG
BARNWELL       FAIR      66  66 100 CALM      30.19S
AIKEN          FAIR      64  61  88 SW7       30.22S
MANNING        FAIR      63  61  94 CALM      30.18S
COLUMBIA       CLEAR     63  58  83 W3        30.17S
SUMTER         CLEAR     62  60  93 SW3       30.16S
FLORENCE       CLEAR     64  60  87 CALM      30.19R
MYRTLE BEACH   CLEAR     63  54  72 CALM      30.21S
N MYRTLE BEACH CLEAR     62  61  96 CALM      30.18S

$$

GAZ063-065-086>088-099>101-113>116-118-119-134>141-150-250900-
...SOUTHEAST GEORGIA...

CITY           SKY/WX    TMP DP  RH WIND       PRES   REMARKS
SAVANNAH ARPT  CLEAR     68  66  93 CALM      30.19R
HUNTER AAF     CLEAR     67  67 100 CALM      30.16S
FORT STEWART   PTCLDY    65  62  90 CALM      30.16S
STATESBORO     PTCLDY    65  65  98 CALM      30.19S
SYLVANIA       MOSUNNY   67  65  94 CALM      30.19S
CLAXTON        FAIR      63  63 100 CALM      30.18S

...CSRA...CENTRAL AND FAR SOUTHEAST GEORGIA...

CITY           SKY/WX    TMP DP  RH WIND       PRES   REMARKS
THOMSON        CLEAR     61  60  97 CALM      30.22R
AUGUSTA-BUSH   FOG       58  58 100 CALM      30.17S VSB 1/2
AUGUSTA-DANIEL CLEAR     70  59  68 S3        30.18S
SWAINSBORO     FAIR      64  61  88 CALM      30.19S
VIDALIA        CLEAR     64  61  88 CALM      30.18F
EASTMAN        FAIR      59  59 100 CALM      30.20S
HAZLEHURST     FAIR      69  62  78 CALM      30.17S
ALMA           PTCLDY    61  60  97 CALM      30.18S
WAYCROSS       MOCLDY    67  63  86 CALM      30.18S
JESUP          FAIR      57  55  94 CALM      30.18F
BAXLEY         MOCLDY    63  63 100 CALM      30.17F
BRUNSWICK      FOG       64  63  94 CALM      30.19S VSB 1/4
SAINT SIMONS   PTCLDY    72  67  84 SW3       30.18R

$$

SCZ027-028-034-036>038-045-046-048>050-GAZ119-141-250900-
...LAKE AND SUPPLEMENTAL COASTAL OBSERVATIONS...

STATION/POSITION TIME  TEMP    WIND        PRES    WAVE   SWELL
                       AIR SEA DIR/SP/G            HT/PER HT/PER/DIR
                 (UTC) (F)     (DEG/KT/KT) (MB)    (FT/S) (FT/S/D)
WINYAH BAY       0700   63     310/  2     1021.0
LAKE MURRAY      0700   70     220/  8/ 11 1021.3R
ACE BASIN NERRS  0700   68        CALM     1022.0S
FORT PULASKI     0800   73 76  270/  2/  2 1022.3R
SAPELO ISLAND    0800   74     240/  4     1022.0S

$$

ANZ835-935-AMZ111-154-330-350-352-354-370-450-454-472-250900-
...C-MAN AND BUOY OBSERVATIONS...

STATION/POSITION TIME  TEMP    WIND        PRES    WAVE   SWELL
                       AIR SEA DIR/SP/G            HT/PER HT/PER/DIR
                 (UTC) (F)     (DEG/KT/KT) (MB)    (FT/S) (FT/S/D)
BUOY 41004       0750   76 75  210/  4/  6 1021.9S   2/ 9   2/ 9
BUOY 41008       0750   76 75  200/  8/ 10 1021.7S   2/ 9   2/ 90/ 9
FOLLY BEACH CMAN 0800   73     220/  5/  7 1022.3S
CAPERS NEARSHORE 0808   74 74  220/  6/ 10 1021.9S
FRIPP NEARSHORE  0808   75 75  220/  6/  8 1021.6S


STATION/POSITION TIME  TEMP    WIND        PRES    WAVE   SWELL
                       AIR SEA DIR/SP/G            HT/PER HT/PER/DIR
                 (UTC) (F)     (DEG/KT/KT) (MB)    (FT/S) (FT/S/D)
5E ST. MARYS GA  0721      77                N/A     3/ 9
FRYING PAN BUOY  0800   75 76  240/ 12/ 14 1022.0R
BUOY 41025       0750   69 69  250/ 10/ 10 1021.4R   3/ 5   3/220/ 5
CAPE LOOKOUT NC  0800   69     260/  6/  7 1021.6R
BUOY 41002       0750   73 78   30/  6/  8 1022.4S   4/ 9   3/ 60/ 9
BUOY 41010       0720   76 78   80/  6/  8 1022.0S
ST AUGUSTINE FL  0800   78 78  150/ 12/ 14 1022.6S


$$




USA.gov is the U.S. government's official web portal to all federal, state and local government web resources and services.